[[{"header":{"parameterUnit":"m.s-1","parameterCategory":2,"la1":30.2991,"la2":30.254,"lo1":-89.0895,"lo2":-89.0444,"dy":0.0017,"dx":0.0017,"nx":28,"ny":28,"refTime":"2024-11-30T09:00:00:Z","depth":"0","parameterNumber":2,"parameterNumberName":"U-component_of_CURRENTS"},"data":[0,0,0,0,0,0,0,0,0,0,0,0,0,0,0,0,0,0,0,0,0,0,0,0,0,0,0,0,0,0,0,0,0,0,0,0,0,0,0,0,0,0,0,0,0,0,0,0,0,0,0,0,0,0,0,0,0,0,-0.2343,-0.2343,0,-0.2343,-0.2343,-0.2342,-0.2269,-0.2267,-0.2266,-0.2265,-0.2157,-0.2155,-0.2154,0,0,0,0,0,0,0,0,0,0,0,0,0,-0.228,-0.2281,-0.2343,-0.2343,-0.2344,-0.2343,-0.2343,-0.2342,-0.2269,-0.2267,-0.2266,-0.2264,-0.2157,-0.2156,-0.2154,0,0,0,0,0,0,0,0,0,0,0,0,0,-0.2292,-0.2281,-0.2343,-0.2311,-0.2309,-0.2343,-0.2343,-0.2342,-0.2269,-0.2267,-0.2265,-0.2263,-0.2158,-0.2156,-0.2153,-0.2184,0,0,-0.2147,-0.2146,0,0,0,0,0,0,0,0,-0.2291,-0.2293,-0.2315,-0.2313,-0.2311,-0.2308,-0.2281,-0.2285,-0.227,-0.2279,-0.2265,-0.2262,-0.2202,-0.2196,-0.2196,-0.2178,-0.2174,-0.2146,-0.2145,-0.2144,-0.2143,0,0,0,0,0,0,0,-0.229,-0.2293,-0.2338,-0.2316,-0.2313,-0.2297,-0.2296,-0.2282,-0.2247,-0.2278,-0.2274,-0.2283,-0.2199,-0.2198,-0.2192,-0.2172,-0.2146,-0.2144,-0.2143,-0.2142,-0.2155,-0.2156,0,0,0,0,0,0,-0.2303,-0.2293,-0.2338,-0.2338,-0.2301,-0.2301,-0.2299,-0.2307,-0.2249,-0.2241,-0.2285,-0.228,-0.2203,-0.2195,-0.2188,-0.2205,-0.2144,-0.2142,-0.2141,-0.2153,-0.2155,-0.2157,0,0,0,0,0,0,-0.2302,-0.2307,-0.2338,-0.2319,-0.2322,-0.2305,-0.2314,-0.2308,-0.2298,-0.2257,-0.2244,-0.228,-0.2201,-0.2191,-0.2176,-0.22,-0.2141,-0.2139,-0.2151,-0.2154,-0.2156,-0.2248,0,0,0,0,0,0,-0.23,-0.2307,-0.2314,-0.232,-0.2324,-0.2365,-0.2317,-0.231,-0.231,-0.2303,-0.2249,-0.2237,-0.2198,-0.218,-0.2174,-0.2196,-0.2137,-0.2149,-0.2152,-0.2155,-0.2243,-0.2253,-0.2262,0,0,0,0,0,-0.2298,-0.2315,-0.2314,-0.232,-0.2336,-0.2367,-0.2367,-0.2343,-0.2312,-0.2322,-0.2282,-0.2238,-0.2196,-0.218,-0.2173,-0.2194,-0.2147,-0.2151,-0.2155,-0.2238,-0.2251,-0.2262,0,0,0,0,0,0,-0.229,-0.231,-0.2309,-0.2331,-0.2354,-0.2356,-0.2361,-0.2351,-0.2329,-0.2311,-0.2259,-0.2246,-0.2245,-0.2213,-0.2197,-0.2209,-0.2166,-0.2168,-0.2232,-0.2243,-0.2253,-0.2259,-0.2135,0,0,0,0,0,-0.2298,-0.2308,-0.2337,-0.2352,-0.2367,-0.2367,-0.2373,-0.2366,-0.2354,-0.2341,-0.2309,-0.2275,-0.2261,-0.2244,-0.2228,-0.2233,-0.2216,-0.2244,-0.2254,-0.2262,-0.2264,-0.2264,-0.2274,-0.2169,-0.2169,-0.2169,0,0,-0.2298,-0.2311,-0.2315,-0.2351,-0.2359,-0.2393,-0.2363,-0.2382,-0.24,-0.2334,-0.2334,-0.2311,-0.2273,-0.2279,-0.2276,-0.2249,-0.2289,-0.2267,-0.2274,-0.2271,-0.2269,-0.2279,-0.2288,-0.2172,-0.2171,-0.2171,0,0,-0.2305,-0.2319,-0.2332,-0.2364,-0.2394,-0.2406,-0.2417,-0.2432,-0.2426,-0.244,-0.2398,-0.2392,-0.2364,-0.235,-0.2335,-0.2392,-0.2345,-0.2384,-0.243,-0.2431,-0.2439,-0.2446,-0.2461,-0.2468,-0.2382,-0.2382,-0.2382,0,-0.2307,-0.2332,-0.2344,-0.2377,-0.2407,-0.2416,-0.2454,-0.2464,-0.247,-0.2475,-0.2447,-0.2433,-0.2401,-0.2412,-0.2428,-0.2414,-0.2406,-0.2386,-0.2443,-0.245,-0.2455,-0.2468,-0.2475,-0.2387,-0.2387,-0.2386,-0.2386,0,-0.2329,-0.2361,-0.2377,-0.2421,-0.2454,-0.2492,-0.2525,-0.2544,-0.254,-0.2548,-0.2562,-0.2532,-0.2518,-0.2517,-0.2484,-0.2514,-0.2495,-0.2461,-0.2412,-0.2471,-0.2481,-0.2487,-0.2394,-0.2392,-0.2391,-0.239,0,0,-0.2304,-0.2379,-0.2385,-0.2418,-0.2486,-0.2513,-0.256,-0.2607,-0.2625,-0.2636,-0.2656,-0.265,-0.2632,-0.2615,-0.2584,-0.2584,-0.2625,-0.2539,-0.2536,-0.2552,-0.2637,-0.2523,-0.2517,-0.2594,-0.2595,-0.2596,-0.2636,0,-0.232,-0.2386,-0.2425,-0.2493,-0.2531,-0.2578,-0.2623,-0.2663,-0.2678,-0.2702,-0.2695,-0.2698,-0.267,-0.2656,-0.2661,-0.2624,-0.264,-0.2618,-0.2578,-0.2577,-0.2466,-0.252,-0.2355,-0.2366,-0.2641,-0.2642,-0.2643,0,-0.2317,-0.2369,-0.2438,-0.2529,-0.2551,-0.2593,-0.266,-0.2705,-0.2751,-0.276,-0.2776,-0.2761,-0.2774,-0.273,-0.2728,-0.2711,-0.2688,-0.2665,-0.2665,-0.2525,-0.2472,-0.2347,-0.2366,-0.2317,-0.2651,-0.265,-0.2649,0,-0.2264,-0.237,-0.2423,-0.246,-0.2567,-0.2598,-0.265,-0.271,-0.2745,-0.2787,-0.28,-0.282,-0.281,-0.2799,-0.2761,-0.274,-0.2753,-0.2715,-0.2607,-0.26,-0.2433,-0.2408,-0.2391,-0.2729,-0.2728,-0.2728,-0.2728,0,-0.2255,-0.2293,-0.2401,-0.2431,-0.2497,-0.2574,-0.263,-0.2683,-0.2747,-0.2786,-0.2816,-0.2831,-0.2821,-0.2822,-0.2793,-0.2718,-0.2784,-0.2625,-0.26,-0.2462,-0.244,-0.2366,-0.239,-0.273,-0.273,-0.2729,-0.2729,0,-0.2169,-0.225,-0.2311,-0.2429,-0.2467,-0.2503,-0.2615,-0.2652,-0.2722,-0.2768,-0.278,-0.2836,-0.2825,-0.2821,-0.28,-0.2733,-0.2624,-0.2654,-0.25,-0.2453,-0.225,-0.2286,-0.2266,-0.2207,-0.2521,-0.2519,-0.2516,0,-0.2122,-0.2144,-0.2278,-0.2318,-0.2369,-0.2444,-0.2498,-0.2612,-0.2654,-0.2762,-0.2775,-0.2798,-0.2776,-0.2722,-0.2617,-0.2546,-0.255,-0.2358,-0.2273,-0.2222,-0.2245,-0.2283,-0.2239,-0.2114,-0.2108,-0.2104,-0.21,0,-0.2023,-0.2072,-0.2135,-0.2219,-0.2283,-0.236,-0.2443,-0.2481,-0.261,-0.2647,-0.2692,-0.2684,-0.2627,-0.245,-0.2354,-0.2296,-0.2258,-0.226,-0.2244,-0.1954,-0.1959,-0.1893,-0.2134,-0.2061,-0.2065,-0.2068,-0.207,-0.2072,-0.1931,-0.1948,-0.2031,-0.21,-0.2175,-0.223,-0.2231,-0.2321,-0.2366,-0.2361,-0.2496,-0.2394,-0.2286,-0.2093,-0.2048,-0.1851,-0.1976,-0.1751,-0.1814,-0.1871,-0.1756,-0.1913,-0.1777,-0.178,-0.1781,-0.1783,-0.1785,0,-0.1805,-0.1844,-0.1904,-0.1975,-0.1986,-0.2077,-0.2151,-0.2108,-0.2084,-0.2105,-0.2079,-0.1936,-0.1754,-0.1685,-0.1507,-0.1418,-0.1409,-0.1406,-0.1428,-0.1414,-0.1559,-0.1476,-0.1221,-0.1221,-0.1221,-0.1221,-0.1221,-0.1222,-0.1742,-0.1742,-0.1783,-0.1757,-0.1794,-0.1736,-0.1737,-0.1693,-0.1665,-0.1534,-0.1438,-0.1435,-0.1428,-0.1437,-0.1281,-0.1212,-0.1214,-0.1168,-0.1262,-0.1358,-0.1396,-0.1431,-0.1356,-0.1081,-0.1081,-0.1014,-0.1013,-0.1013]},{"header":{"parameterUnit":"m.s-1","parameterCategory":2,"la1":30.2991,"la2":30.254,"lo1":-89.0895,"lo2":-89.0444,"dy":0.0017,"dx":0.0017,"nx":28,"ny":28,"refTime":"2024-11-30T09:00:00:Z","depth":"0","parameterNumber":3,"parameterNumberName":"V-component_of_CURRENTS"},"data":[0,0,0,0,0,0,0,0,0,0,0,0,0,0,0,0,0,0,0,0,0,0,0,0,0,0,0,0,0,0,0,0,0,0,0,0,0,0,0,0,0,0,0,0,0,0,0,0,0,0,0,0,0,0,0,0,0,0,-0.0673,-0.0673,0,-0.065,-0.065,-0.0649,-0.0622,-0.0622,-0.0621,-0.0621,-0.0519,-0.0517,-0.0515,0,0,0,0,0,0,0,0,0,0,0,0,0,-0.069,-0.069,-0.0673,-0.0673,-0.0673,-0.065,-0.065,-0.0649,-0.0622,-0.0622,-0.0621,-0.0621,-0.052,-0.0517,-0.0514,0,0,0,0,0,0,0,0,0,0,0,0,0,-0.0676,-0.069,-0.0673,-0.0657,-0.0655,-0.065,-0.065,-0.0649,-0.0622,-0.0622,-0.0621,-0.0621,-0.0521,-0.0518,-0.0514,-0.0503,0,0,-0.0503,-0.0502,0,0,0,0,0,0,0,0,-0.0677,-0.0675,-0.0659,-0.0658,-0.0656,-0.0639,-0.0619,-0.0597,-0.0622,-0.0634,-0.0621,-0.062,-0.0553,-0.0547,-0.0544,-0.0499,-0.0494,-0.0503,-0.0501,-0.0499,-0.0498,0,0,0,0,0,0,0,-0.0678,-0.0676,-0.0663,-0.0659,-0.0657,-0.0649,-0.0647,-0.0615,-0.0595,-0.0633,-0.0631,-0.063,-0.0551,-0.0547,-0.0541,-0.0493,-0.0503,-0.05,-0.0498,-0.0496,-0.0403,-0.0402,0,0,0,0,0,0,-0.0683,-0.0677,-0.0664,-0.0663,-0.0666,-0.065,-0.0647,-0.0644,-0.0597,-0.059,-0.063,-0.0628,-0.0554,-0.0545,-0.0537,-0.0501,-0.0499,-0.0496,-0.0494,-0.0403,-0.0403,-0.0402,0,0,0,0,0,0,-0.0683,-0.0682,-0.0665,-0.067,-0.0667,-0.065,-0.0648,-0.0644,-0.0637,-0.0596,-0.0587,-0.0626,-0.0553,-0.0542,-0.0498,-0.0497,-0.0494,-0.0491,-0.0404,-0.0403,-0.0403,-0.044,0,0,0,0,0,0,-0.0684,-0.0682,-0.0683,-0.067,-0.0667,-0.0665,-0.0648,-0.0644,-0.0637,-0.0635,-0.0589,-0.058,-0.0552,-0.0503,-0.0494,-0.0492,-0.0488,-0.0404,-0.0403,-0.0403,-0.044,-0.0441,-0.0443,0,0,0,0,0,-0.0684,-0.0685,-0.0683,-0.0681,-0.0669,-0.0665,-0.0663,-0.0648,-0.0638,-0.0639,-0.0598,-0.0581,-0.0493,-0.05,-0.0489,-0.0486,-0.0404,-0.0404,-0.0403,-0.0439,-0.0441,-0.0443,0,0,0,0,0,0,-0.0696,-0.0682,-0.0679,-0.0677,-0.0674,-0.0661,-0.0657,-0.065,-0.0622,-0.0612,-0.0572,-0.0559,-0.052,-0.0497,-0.0506,-0.0457,-0.0447,-0.0445,-0.0479,-0.048,-0.0481,-0.0504,-0.0486,0,0,0,0,0,-0.07,-0.0692,-0.0686,-0.0685,-0.0683,-0.0672,-0.0668,-0.0661,-0.0635,-0.0623,-0.0591,-0.0551,-0.0511,-0.049,-0.0454,-0.0427,-0.0415,-0.0419,-0.042,-0.0422,-0.0433,-0.0416,-0.0418,-0.04,-0.04,-0.04,0,0,-0.0707,-0.0696,-0.0694,-0.0686,-0.068,-0.0688,-0.0667,-0.0663,-0.0661,-0.0614,-0.0592,-0.0552,-0.0503,-0.047,-0.0452,-0.045,-0.0418,-0.0421,-0.0423,-0.0433,-0.0416,-0.0418,-0.042,-0.0399,-0.0399,-0.0399,0,0,-0.072,-0.0705,-0.0708,-0.071,-0.0703,-0.0695,-0.0695,-0.0683,-0.0665,-0.0642,-0.0603,-0.0563,-0.0512,-0.0478,-0.0452,-0.044,-0.0424,-0.0429,-0.0458,-0.0442,-0.0444,-0.0446,-0.0427,-0.0426,-0.0434,-0.0434,-0.0434,0,-0.0733,-0.0738,-0.0711,-0.0722,-0.073,-0.0701,-0.0722,-0.0698,-0.0672,-0.0659,-0.0638,-0.0564,-0.0517,-0.0478,-0.047,-0.0445,-0.0436,-0.0457,-0.0446,-0.0447,-0.0448,-0.0429,-0.0428,-0.0436,-0.0435,-0.0435,-0.0435,0,-0.0753,-0.0765,-0.0766,-0.0769,-0.0771,-0.0781,-0.0757,-0.0741,-0.0715,-0.0697,-0.0653,-0.0589,-0.0553,-0.0524,-0.0489,-0.0471,-0.0462,-0.0449,-0.0447,-0.0453,-0.0431,-0.043,-0.0438,-0.0437,-0.0437,-0.0436,0,0,-0.0767,-0.0783,-0.0784,-0.081,-0.0802,-0.0811,-0.0792,-0.0781,-0.0781,-0.0728,-0.0726,-0.0638,-0.0613,-0.0582,-0.0533,-0.051,-0.0494,-0.0488,-0.0486,-0.048,-0.0463,-0.035,-0.0337,-0.0486,-0.0486,-0.0486,-0.0444,0,-0.0799,-0.0843,-0.0831,-0.0876,-0.0905,-0.0877,-0.0875,-0.0853,-0.0819,-0.0803,-0.0723,-0.0698,-0.0631,-0.0619,-0.0581,-0.0522,-0.0493,-0.0507,-0.045,-0.0448,-0.0355,-0.0332,-0.0254,-0.0201,-0.0442,-0.0442,-0.0442,0,-0.0826,-0.0855,-0.0912,-0.0953,-0.0961,-0.0976,-0.0977,-0.097,-0.0923,-0.0896,-0.0848,-0.0796,-0.0736,-0.0686,-0.0589,-0.0606,-0.0539,-0.0488,-0.0485,-0.0368,-0.0331,-0.0234,-0.0189,-0.0046,-0.0439,-0.0439,-0.0439,0,-0.0863,-0.0911,-0.0962,-0.0978,-0.1011,-0.1022,-0.1028,-0.1002,-0.1003,-0.0958,-0.0961,-0.0879,-0.0849,-0.0756,-0.0615,-0.0621,-0.0508,-0.0507,-0.0339,-0.0331,-0.0246,-0.0229,-0.0064,-0.0444,-0.0444,-0.0444,-0.0444,0,-0.0907,-0.0944,-0.0987,-0.1019,-0.1083,-0.1078,-0.1121,-0.1106,-0.1093,-0.111,-0.1018,-0.1003,-0.087,-0.0775,-0.0651,-0.047,-0.0532,-0.0338,-0.0308,-0.0253,-0.0238,-0.0094,-0.0048,-0.0442,-0.0443,-0.0443,-0.0443,0,-0.0937,-0.0964,-0.1034,-0.1088,-0.1107,-0.1151,-0.1192,-0.1219,-0.1193,-0.1213,-0.1206,-0.1111,-0.0973,-0.0804,-0.0648,-0.0514,-0.0245,-0.0277,-0.0209,-0.017,0.012,0.016,0.034,0.043,-0.011,-0.0107,-0.0104,0,-0.0952,-0.0992,-0.1089,-0.1142,-0.1169,-0.1227,-0.1271,-0.1269,-0.1294,-0.127,-0.1284,-0.1159,-0.1035,-0.073,-0.0466,-0.0208,-0.0111,-0.0003,0.0015,0.0165,0.0229,0.025,0.0312,0.0103,0.0108,0.0111,0.0114,0,-0.0985,-0.1022,-0.109,-0.1206,-0.1273,-0.1346,-0.1399,-0.1433,-0.143,-0.1418,-0.1358,-0.1251,-0.0923,-0.0574,-0.0215,-0.0058,0.0133,0.0076,0.0205,0.0402,0.0458,0.0549,0.0041,0.0144,0.0141,0.0139,0.0137,0.0136,-0.1001,-0.107,-0.1167,-0.1274,-0.1358,-0.1443,-0.148,-0.1506,-0.1524,-0.1451,-0.1373,-0.1107,-0.0649,-0.0109,0.0058,0.0466,0.0391,0.0577,0.0607,0.0608,0.0731,0.0309,0.0469,0.0468,0.0467,0.0466,0.0465,0,-0.1028,-0.1113,-0.1224,-0.1356,-0.1445,-0.1474,-0.155,-0.154,-0.1525,-0.137,-0.1229,-0.0637,-0.017,0.0248,0.078,0.098,0.0993,0.1065,0.1093,0.1125,0.0735,0.0784,0.1052,0.1052,0.1052,0.1052,0.1052,0.1052,-0.1046,-0.1158,-0.1234,-0.1397,-0.1475,-0.154,-0.1566,-0.1518,-0.1389,-0.1051,-0.0671,-0.0382,0.017,0.0919,0.137,0.1409,0.154,0.1548,0.1594,0.131,0.1265,0.1222,0.1282,0.1651,0.1651,0.1986,0.1989,0.1992]}],[{"header":{"parameterUnit":"m.s-1","parameterCategory":2,"la1":30.2991,"la2":30.254,"lo1":-89.0895,"lo2":-89.0444,"dy":0.0017,"dx":0.0017,"nx":28,"ny":28,"refTime":"2024-11-30T09:00:00:Z","depth":"2","parameterNumber":2,"parameterNumberName":"U-component_of_CURRENTS"},"data":[0,0,0,0,0,0,0,0,0,0,0,0,0,0,0,0,0,0,0,0,0,0,0,0,0,0,0,0,0,0,0,0,0,0,0,0,0,0,0,0,0,0,0,0,0,0,0,0,0,0,0,0,0,0,0,0,0,0,-0.1766,-0.1766,0,-0.1687,-0.1684,-0.1681,-0.1662,-0.1664,-0.1667,-0.1669,-0.1918,-0.1922,-0.1926,0,0,0,0,0,0,0,0,0,0,0,0,0,-0.1719,-0.1719,-0.1765,-0.1766,-0.1767,-0.1687,-0.1684,-0.1681,-0.1661,-0.1664,-0.1667,-0.167,-0.1916,-0.1922,-0.1927,0,0,0,0,0,0,0,0,0,0,0,0,0,-0.168,-0.1719,-0.1765,-0.1764,-0.1764,-0.1688,-0.1684,-0.168,-0.1661,-0.1664,-0.1668,-0.1671,-0.1915,-0.1921,-0.1927,-0.1893,0,0,-0.1947,-0.195,0,0,0,0,0,0,0,0,-0.1682,-0.1679,-0.1763,-0.1764,-0.1765,-0.1707,-0.176,-0.1775,-0.166,-0.1677,-0.1669,-0.1673,-0.1889,-0.1898,-0.1839,-0.1905,-0.1916,-0.1948,-0.1952,-0.1955,-0.1956,0,0,0,0,0,0,0,-0.1685,-0.1681,-0.1712,-0.1764,-0.1765,-0.1707,-0.1705,-0.1758,-0.1753,-0.1676,-0.168,-0.1704,-0.1889,-0.1832,-0.1847,-0.1919,-0.1948,-0.1953,-0.1957,-0.196,-0.216,-0.2162,0,0,0,0,0,0,-0.1743,-0.1684,-0.1715,-0.1712,-0.1756,-0.1707,-0.1703,-0.1704,-0.1745,-0.1758,-0.1701,-0.1704,-0.182,-0.1839,-0.1856,-0.201,-0.1955,-0.1961,-0.1964,-0.2159,-0.2161,-0.2162,0,0,0,0,0,0,-0.1742,-0.1745,-0.1719,-0.1715,-0.1711,-0.1708,-0.1706,-0.1701,-0.1705,-0.1764,-0.178,-0.1722,-0.1823,-0.1847,-0.1978,-0.2014,-0.1964,-0.1969,-0.2157,-0.216,-0.2162,-0.22,0,0,0,0,0,0,-0.174,-0.1744,-0.1753,-0.1718,-0.1714,-0.1729,-0.1705,-0.1698,-0.1722,-0.1725,-0.1787,-0.1809,-0.1828,-0.1968,-0.1985,-0.2023,-0.1975,-0.2156,-0.2158,-0.2161,-0.2196,-0.2203,-0.2208,0,0,0,0,0,-0.1738,-0.1751,-0.1752,-0.1758,-0.1729,-0.1733,-0.1722,-0.1717,-0.172,-0.1729,-0.1791,-0.181,-0.1996,-0.1976,-0.1994,-0.2035,-0.2154,-0.2158,-0.2161,-0.2194,-0.2201,-0.2208,0,0,0,0,0,0,-0.1735,-0.1751,-0.1752,-0.1769,-0.178,-0.1739,-0.1736,-0.1743,-0.1775,-0.1788,-0.1843,-0.187,-0.1993,-0.2009,-0.1986,-0.2097,-0.2072,-0.2079,-0.209,-0.2098,-0.2104,-0.2036,-0.198,0,0,0,0,0,-0.1741,-0.1754,-0.1766,-0.1782,-0.1782,-0.1762,-0.1761,-0.1763,-0.1795,-0.1807,-0.1845,-0.1906,-0.1999,-0.2054,-0.2108,-0.218,-0.2161,-0.2212,-0.2217,-0.2222,-0.2179,-0.2231,-0.2237,-0.2173,-0.2173,-0.2173,0,0,-0.1748,-0.1759,-0.1768,-0.1783,-0.1764,-0.1776,-0.1765,-0.1775,-0.1801,-0.1839,-0.1875,-0.1939,-0.2027,-0.2105,-0.2158,-0.214,-0.2227,-0.2226,-0.223,-0.2183,-0.2235,-0.2241,-0.2246,-0.2175,-0.2175,-0.2174,0,0,-0.1758,-0.1769,-0.1775,-0.179,-0.1807,-0.1798,-0.1828,-0.1805,-0.1812,-0.1876,-0.1916,-0.1999,-0.2101,-0.2147,-0.2203,-0.2274,-0.2264,-0.2303,-0.2276,-0.233,-0.2334,-0.2339,-0.23,-0.23,-0.2298,-0.2298,-0.2298,0,-0.1758,-0.1779,-0.1782,-0.1795,-0.1817,-0.1828,-0.1845,-0.1848,-0.1877,-0.1896,-0.1913,-0.2025,-0.2112,-0.2217,-0.2239,-0.2286,-0.2281,-0.225,-0.2336,-0.234,-0.2343,-0.2302,-0.2302,-0.23,-0.23,-0.23,-0.23,0,-0.177,-0.1799,-0.1804,-0.1827,-0.1845,-0.1866,-0.1893,-0.1904,-0.1927,-0.1937,-0.202,-0.2083,-0.2148,-0.2199,-0.2255,-0.2321,-0.2295,-0.2347,-0.2313,-0.2351,-0.2306,-0.2305,-0.2304,-0.2303,-0.2302,-0.2301,0,0,-0.1738,-0.1797,-0.1802,-0.1829,-0.1868,-0.1884,-0.1927,-0.1967,-0.2004,-0.2014,-0.2054,-0.2168,-0.2159,-0.2213,-0.2265,-0.2297,-0.2336,-0.2324,-0.2326,-0.2272,-0.2387,-0.2288,-0.2277,-0.2419,-0.2419,-0.242,-0.2335,0,-0.1743,-0.1776,-0.1813,-0.1869,-0.1887,-0.1926,-0.1971,-0.2015,-0.2049,-0.2084,-0.2124,-0.2195,-0.2184,-0.2229,-0.2254,-0.2348,-0.2339,-0.2348,-0.2365,-0.2362,-0.2263,-0.2276,-0.2114,-0.202,-0.2334,-0.2334,-0.2334,0,-0.174,-0.177,-0.1807,-0.1895,-0.1905,-0.1947,-0.201,-0.2058,-0.2121,-0.2147,-0.2165,-0.2198,-0.2241,-0.2242,-0.229,-0.2301,-0.2317,-0.2348,-0.2348,-0.2231,-0.2264,-0.2039,-0.2006,-0.2332,-0.2332,-0.2332,-0.2333,0,-0.1704,-0.1776,-0.1808,-0.1835,-0.1922,-0.1953,-0.2003,-0.2067,-0.2104,-0.2174,-0.2198,-0.2232,-0.2268,-0.2286,-0.2313,-0.2327,-0.235,-0.2398,-0.2281,-0.2272,-0.2115,-0.2091,-0.2393,-0.2393,-0.2393,-0.2393,-0.2393,0,-0.1701,-0.1735,-0.1797,-0.1824,-0.1876,-0.1942,-0.1996,-0.2055,-0.2122,-0.217,-0.2212,-0.2227,-0.2292,-0.2307,-0.2312,-0.2264,-0.2341,-0.2235,-0.225,-0.212,-0.2099,-0.2365,-0.2362,-0.239,-0.2391,-0.2391,-0.2392,0,-0.1658,-0.1704,-0.1745,-0.1829,-0.1861,-0.189,-0.1979,-0.2022,-0.2093,-0.2149,-0.2172,-0.2243,-0.2257,-0.226,-0.2315,-0.2262,-0.2249,-0.2209,-0.1996,-0.1986,-0.2117,-0.2118,-0.2054,-0.205,-0.2046,-0.2043,-0.2041,0,-0.1633,-0.1648,-0.172,-0.1746,-0.1788,-0.1841,-0.1891,-0.1988,-0.2016,-0.2139,-0.2152,-0.2204,-0.2184,-0.2161,-0.2114,-0.2038,-0.2143,-0.1846,-0.1844,-0.2064,-0.2086,-0.2092,-0.2098,-0.1637,-0.1632,-0.1627,-0.1624,0,-0.1583,-0.1602,-0.1631,-0.1673,-0.1726,-0.1771,-0.1834,-0.1853,-0.1972,-0.2006,-0.2058,-0.2067,-0.2045,-0.1902,-0.1816,-0.1766,-0.1848,-0.1749,-0.2071,-0.1756,-0.1668,-0.1691,-0.1711,-0.1584,-0.1588,-0.1591,-0.1593,-0.1594,-0.1526,-0.1521,-0.1555,-0.1584,-0.164,-0.1675,-0.1667,-0.1727,-0.1751,-0.1775,-0.1874,-0.1815,-0.1811,-0.1574,-0.1497,-0.1439,-0.1568,-0.15,-0.1516,-0.1536,-0.1511,-0.1423,-0.1282,-0.1284,-0.1286,-0.1288,-0.1289,0,-0.1443,-0.1454,-0.1475,-0.1498,-0.1503,-0.1573,-0.1609,-0.1571,-0.1544,-0.1574,-0.1558,-0.1395,-0.1267,-0.1273,-0.1112,-0.1076,-0.1093,-0.1037,-0.1063,-0.1102,-0.1137,-0.1095,-0.0754,-0.0753,-0.0751,-0.075,0,0,-0.1412,-0.1388,-0.1389,-0.1346,-0.1367,-0.133,-0.1323,-0.1291,-0.1258,-0.1187,-0.1129,-0.117,-0.1208,-0.0969,-0.092,-0.0811,-0.0951,-0.0769,-0.1195,-0.1263,-0.1296,-0.1395,-0.1372,0,0,0,0,0]},{"header":{"parameterUnit":"m.s-1","parameterCategory":2,"la1":30.2991,"la2":30.254,"lo1":-89.0895,"lo2":-89.0444,"dy":0.0017,"dx":0.0017,"nx":28,"ny":28,"refTime":"2024-11-30T09:00:00:Z","depth":"2","parameterNumber":3,"parameterNumberName":"V-component_of_CURRENTS"},"data":[0,0,0,0,0,0,0,0,0,0,0,0,0,0,0,0,0,0,0,0,0,0,0,0,0,0,0,0,0,0,0,0,0,0,0,0,0,0,0,0,0,0,0,0,0,0,0,0,0,0,0,0,0,0,0,0,0,0,-0.002,-0.0019,0,0.0097,0.0099,0.0101,0.0146,0.0146,0.0145,0.0144,0.0209,0.0212,0.0214,0,0,0,0,0,0,0,0,0,0,0,0,0,-0.0076,-0.0076,-0.002,-0.0019,-0.0018,0.0097,0.0099,0.0101,0.0147,0.0146,0.0144,0.0143,0.0208,0.0212,0.0215,0,0,0,0,0,0,0,0,0,0,0,0,0,-0.0009,-0.0075,-0.002,0.0014,0.0018,0.0096,0.0099,0.0102,0.0147,0.0146,0.0144,0.0143,0.0207,0.0211,0.0215,0.0266,0,0,0.0227,0.0229,0,0,0,0,0,0,0,0,-0.0013,-0.0006,0.0008,0.0012,0.0016,0.01,0.0103,0.0152,0.0147,0.0105,0.0144,0.0142,0.0165,0.0172,0.0207,0.0269,0.0272,0.0227,0.023,0.0231,0.0232,0,0,0,0,0,0,0,-0.0018,-0.001,0.0033,0.0009,0.0014,0.0066,0.0074,0.0114,0.0145,0.0108,0.011,0.0113,0.0167,0.0203,0.0209,0.0273,0.0227,0.0231,0.0233,0.0234,0.0321,0.0321,0,0,0,0,0,0,-0.005,-0.0015,0.0029,0.0036,-0.0009,0.0067,0.0076,0.008,0.0146,0.0153,0.0114,0.0115,0.0197,0.0204,0.0211,0.0217,0.0231,0.0235,0.0237,0.0321,0.0321,0.0321,0,0,0,0,0,0,-0.0052,-0.0047,0.0024,0.0008,0.002,0.0068,0.0073,0.0083,0.0099,0.015,0.0157,0.0116,0.0197,0.0205,0.0245,0.0221,0.0237,0.024,0.0321,0.0321,0.0321,0.0265,0,0,0,0,0,0,-0.0054,-0.0048,-0.0057,0.0005,0.0019,0.0048,0.0074,0.0086,0.0101,0.0102,0.0154,0.0161,0.0196,0.0239,0.0248,0.0227,0.0243,0.0321,0.0321,0.0321,0.0267,0.0264,0.026,0,0,0,0,0,-0.0056,-0.0066,-0.0058,-0.0053,0.0006,0.0046,0.0059,0.0094,0.0101,0.0105,0.0153,0.0158,0.0244,0.0243,0.0254,0.0233,0.0321,0.0321,0.0321,0.0269,0.0264,0.026,0,0,0,0,0,0,-0.009,-0.0061,-0.0051,-0.0051,-0.0018,0.0051,0.0059,0.0083,0.0129,0.0127,0.0176,0.0187,0.0203,0.0235,0.0232,0.0258,0.0276,0.0278,0.0232,0.0229,0.0225,0.0216,0.0246,0,0,0,0,0,-0.0104,-0.0108,-0.0066,-0.0066,-0.0054,0.0001,0.002,0.0043,0.009,0.0108,0.0157,0.0196,0.0218,0.0236,0.0268,0.0298,0.0324,0.0287,0.0283,0.028,0.0281,0.0292,0.0289,0.0321,0.0321,0.0321,0,0,-0.0117,-0.0102,-0.0104,-0.0075,-0.0041,-0.0031,0.0011,0.0031,0.0038,0.0108,0.0144,0.0185,0.0222,0.0249,0.0258,0.0271,0.029,0.028,0.0277,0.028,0.0292,0.0288,0.0286,0.0321,0.0321,0.0321,0,0,-0.0139,-0.0131,-0.0139,-0.0123,-0.0093,-0.006,-0.0065,0.0001,0.0023,0.0062,0.0106,0.0148,0.0195,0.0233,0.0248,0.0249,0.0265,0.0239,0.0222,0.0232,0.0229,0.0227,0.0273,0.0275,0.0243,0.0243,0.0243,0,-0.0149,-0.0165,-0.0134,-0.0137,-0.0134,-0.0084,-0.0091,-0.0057,0.0016,0.0036,0.0054,0.0147,0.0185,0.0214,0.0217,0.0239,0.0254,0.0231,0.0225,0.0224,0.0222,0.027,0.0273,0.024,0.024,0.0241,0.0241,0,-0.0181,-0.0194,-0.0197,-0.0193,-0.0181,-0.0179,-0.0142,-0.0113,-0.0082,-0.0041,0.0004,0.0086,0.0139,0.0151,0.0185,0.0196,0.0214,0.0212,0.0231,0.0215,0.0268,0.0272,0.0236,0.0237,0.0238,0.0239,0,0,-0.0199,-0.0215,-0.0219,-0.0237,-0.0217,-0.0211,-0.0201,-0.0172,-0.0166,-0.0093,-0.0068,0.0,0.0059,0.0082,0.014,0.0166,0.0186,0.0182,0.0184,0.0221,0.0225,0.0249,0.0257,0.0166,0.0166,0.0166,0.0272,0,-0.023,-0.0265,-0.0261,-0.0297,-0.0313,-0.028,-0.0278,-0.0248,-0.0202,-0.0157,-0.008,-0.0037,0.0022,0.0055,0.0089,0.0156,0.0191,0.0159,0.0242,0.0246,0.0261,0.026,0.024,0.0331,0.0276,0.0277,0.0277,0,-0.0268,-0.0291,-0.0332,-0.0363,-0.0366,-0.0376,-0.0364,-0.0354,-0.0289,-0.0253,-0.0182,-0.0113,-0.0035,0.0003,0.0114,0.0084,0.015,0.0205,0.021,0.0253,0.0277,0.0336,0.0342,0.0285,0.0284,0.0284,0.0283,0,-0.0309,-0.0345,-0.0386,-0.0397,-0.0413,-0.0423,-0.0424,-0.0379,-0.037,-0.0302,-0.0279,-0.0178,-0.0125,-0.0039,0.0097,0.0093,0.0211,0.0217,0.0312,0.0317,0.033,0.0334,0.0282,0.0282,0.0282,0.0281,0.0281,0,-0.0353,-0.0389,-0.0413,-0.044,-0.0492,-0.0479,-0.05,-0.0482,-0.0439,-0.0435,-0.0329,-0.0287,-0.0143,-0.0043,0.0072,0.0213,0.0192,0.0316,0.0338,0.0313,0.0315,0.0292,0.0292,0.0285,0.0284,0.0284,0.0283,0,-0.0393,-0.0408,-0.0462,-0.0497,-0.0515,-0.055,-0.0566,-0.0576,-0.053,-0.0515,-0.0498,-0.0376,-0.0246,-0.0081,0.0076,0.0179,0.0312,0.0365,0.035,0.0367,0.0424,0.042,0.0485,0.0486,0.0487,0.0489,0.0489,0,-0.0417,-0.0449,-0.0511,-0.0558,-0.058,-0.0621,-0.0655,-0.0629,-0.0621,-0.0565,-0.0558,-0.0431,-0.0315,-0.0053,0.014,0.0356,0.0353,0.0453,0.0443,0.0427,0.0442,0.0435,0.043,0.0456,0.0456,0.0457,0.0457,0,-0.0469,-0.0486,-0.0531,-0.0625,-0.0681,-0.0729,-0.0756,-0.0762,-0.0727,-0.0689,-0.0617,-0.0523,-0.0269,-0.0029,0.0241,0.0359,0.0418,0.047,0.0445,0.0398,0.0405,0.0418,0.0412,0.0461,0.0461,0.0461,0.046,0.046,-0.0503,-0.0551,-0.0616,-0.07,-0.0766,-0.0825,-0.0853,-0.0842,-0.0825,-0.074,-0.0649,-0.0466,-0.0258,0.0152,0.0318,0.0477,0.048,0.0531,0.0527,0.0523,0.0492,0.0499,0.057,0.057,0.057,0.0571,0.0571,0,-0.0548,-0.0613,-0.0698,-0.0789,-0.0864,-0.0885,-0.0919,-0.0912,-0.0881,-0.0731,-0.0606,-0.0347,-0.0065,0.0153,0.0412,0.0556,0.0537,0.0574,0.0524,0.052,0.0516,0.0481,0.0559,0.0559,0.0559,0.056,0,0,-0.0586,-0.0674,-0.0721,-0.0856,-0.0922,-0.0997,-0.1018,-0.0979,-0.0862,-0.0706,-0.0518,-0.0279,-0.0021,0.0161,0.0329,0.0456,0.0449,0.0463,0.046,0.0376,0.037,0.0481,0.0422,0,0,0,0,0]}],[{"header":{"parameterUnit":"m.s-1","parameterCategory":2,"la1":30.2991,"la2":30.254,"lo1":-89.0895,"lo2":-89.0444,"dy":0.0017,"dx":0.0017,"nx":28,"ny":28,"refTime":"2024-11-30T09:00:00:Z","depth":"4","parameterNumber":2,"parameterNumberName":"U-component_of_CURRENTS"},"data":[0,0,0,0,0,0,0,0,0,0,0,0,0,0,0,0,0,0,0,0,0,0,0,0,0,0,0,0,0,0,0,0,0,0,0,0,0,0,0,0,0,0,0,0,0,0,0,0,0,0,0,0,0,0,0,0,0,0,-0.1061,-0.1061,0,-0.1079,-0.1079,-0.1079,-0.1094,-0.1094,-0.1095,-0.1095,-0.1133,-0.1134,-0.1135,0,0,0,0,0,0,0,0,0,0,0,0,0,-0.1003,-0.1004,-0.1061,-0.1061,-0.1061,-0.1079,-0.1079,-0.1079,-0.1094,-0.1094,-0.1095,-0.1095,-0.1133,-0.1134,-0.1135,0,0,0,0,0,0,0,0,0,0,0,0,0,-0.1025,-0.1005,-0.1061,-0.1072,-0.1073,-0.1079,-0.1079,-0.1079,-0.1094,-0.1094,-0.1095,-0.1095,-0.1133,-0.1134,-0.1135,-0.1135,0,0,-0.1139,-0.1139,0,0,0,0,0,0,0,0,-0.1023,-0.1027,-0.107,-0.1071,-0.1072,-0.1086,-0.1073,-0.1099,-0.1094,-0.1085,-0.1095,-0.1095,-0.112,-0.1122,-0.1123,-0.1137,-0.1139,-0.1139,-0.114,-0.114,-0.1141,0,0,0,0,0,0,0,-0.1022,-0.1026,-0.1067,-0.107,-0.1072,-0.1063,-0.1067,-0.1078,-0.11,-0.1086,-0.1087,-0.1091,-0.112,-0.1122,-0.1124,-0.1139,-0.1139,-0.114,-0.1141,-0.1141,-0.1213,-0.1214,0,0,0,0,0,0,-0.1023,-0.1025,-0.1066,-0.1068,-0.1049,-0.1064,-0.1068,-0.108,-0.1099,-0.1103,-0.109,-0.1091,-0.1119,-0.1123,-0.1125,-0.1176,-0.114,-0.1141,-0.1142,-0.1211,-0.1213,-0.1214,0,0,0,0,0,0,-0.1022,-0.1027,-0.1066,-0.1047,-0.1051,-0.1065,-0.1078,-0.108,-0.1102,-0.1103,-0.1106,-0.1112,-0.112,-0.1124,-0.1154,-0.1176,-0.1142,-0.1143,-0.121,-0.1212,-0.1214,-0.1245,0,0,0,0,0,0,-0.1021,-0.1027,-0.104,-0.1047,-0.1052,-0.1087,-0.1078,-0.108,-0.1103,-0.1105,-0.1122,-0.1125,-0.112,-0.1152,-0.1155,-0.1177,-0.1144,-0.1209,-0.1211,-0.1213,-0.1243,-0.1248,-0.1252,0,0,0,0,0,-0.1019,-0.1036,-0.1041,-0.1046,-0.1069,-0.1088,-0.1091,-0.11,-0.1104,-0.112,-0.1131,-0.1126,-0.1168,-0.1154,-0.1157,-0.118,-0.1208,-0.121,-0.1213,-0.1241,-0.1247,-0.1252,0,0,0,0,0,0,-0.1014,-0.1039,-0.1045,-0.1068,-0.1086,-0.1092,-0.1108,-0.1114,-0.1134,-0.1142,-0.1139,-0.1143,-0.1176,-0.1177,-0.1161,-0.1208,-0.1188,-0.1191,-0.1208,-0.1214,-0.1219,-0.1228,-0.1145,0,0,0,0,0,-0.102,-0.1044,-0.106,-0.1081,-0.1093,-0.1105,-0.1115,-0.1125,-0.114,-0.115,-0.1158,-0.1172,-0.1186,-0.12,-0.1209,-0.1237,-0.1238,-0.1255,-0.126,-0.1264,-0.1275,-0.1289,-0.1296,-0.1223,-0.1223,-0.1223,0,0,-0.1021,-0.1041,-0.1052,-0.1083,-0.1097,-0.1118,-0.1113,-0.1141,-0.1162,-0.1151,-0.1186,-0.1189,-0.1197,-0.1224,-0.1239,-0.1231,-0.1286,-0.1267,-0.127,-0.128,-0.1293,-0.13,-0.1306,-0.1225,-0.1224,-0.1224,0,0,-0.1033,-0.1058,-0.1081,-0.1099,-0.1131,-0.1142,-0.1156,-0.1176,-0.1194,-0.1224,-0.1219,-0.1239,-0.1262,-0.1268,-0.1274,-0.1315,-0.1308,-0.1321,-0.1357,-0.137,-0.1376,-0.1382,-0.1392,-0.1398,-0.1326,-0.1326,-0.1327,0,-0.1026,-0.1066,-0.1089,-0.1115,-0.1133,-0.1157,-0.1181,-0.1203,-0.1229,-0.1247,-0.1245,-0.1281,-0.1283,-0.1316,-0.1327,-0.1326,-0.1332,-0.1331,-0.1376,-0.1381,-0.1386,-0.1395,-0.1402,-0.1328,-0.1328,-0.1328,-0.1328,0,-0.1058,-0.1087,-0.1104,-0.1147,-0.1171,-0.12,-0.123,-0.1262,-0.1284,-0.1298,-0.1341,-0.1343,-0.1364,-0.1368,-0.1361,-0.1399,-0.1392,-0.1376,-0.1358,-0.1395,-0.1403,-0.1409,-0.1331,-0.133,-0.133,-0.1329,0,0,-0.1035,-0.1108,-0.1116,-0.1139,-0.1192,-0.1213,-0.1264,-0.1308,-0.1343,-0.137,-0.1409,-0.1429,-0.1431,-0.1439,-0.1433,-0.1448,-0.148,-0.1432,-0.1432,-0.1438,-0.1514,-0.141,-0.1407,-0.1472,-0.1473,-0.1474,-0.1506,0,-0.1048,-0.1101,-0.114,-0.1187,-0.1213,-0.1256,-0.1298,-0.1343,-0.1382,-0.1425,-0.1446,-0.1476,-0.1459,-0.1471,-0.1485,-0.148,-0.1498,-0.1473,-0.1482,-0.1483,-0.1382,-0.141,-0.1478,-0.151,-0.1511,-0.1512,-0.1513,0,-0.1061,-0.1099,-0.1149,-0.1211,-0.1227,-0.1262,-0.1337,-0.1377,-0.1444,-0.1473,-0.1513,-0.1527,-0.156,-0.1536,-0.1561,-0.1547,-0.1541,-0.1535,-0.1535,-0.1432,-0.1389,-0.1466,-0.1523,-0.1522,-0.1521,-0.1521,-0.152,0,-0.1032,-0.11,-0.1145,-0.1165,-0.124,-0.1276,-0.132,-0.1391,-0.1427,-0.1506,-0.1536,-0.1579,-0.16,-0.1606,-0.1598,-0.1585,-0.1619,-0.1593,-0.1499,-0.1492,-0.1561,-0.1555,-0.1617,-0.1617,-0.1617,-0.1617,-0.1617,0,-0.1022,-0.1056,-0.1137,-0.1158,-0.1206,-0.1267,-0.1322,-0.1376,-0.145,-0.1491,-0.1554,-0.1583,-0.162,-0.164,-0.1625,-0.1577,-0.164,-0.1512,-0.1493,-0.1574,-0.1569,-0.1565,-0.1559,-0.1618,-0.1618,-0.1618,-0.1618,0,-0.0979,-0.1035,-0.1081,-0.1167,-0.1191,-0.1226,-0.1305,-0.1343,-0.1427,-0.1485,-0.1511,-0.1593,-0.1614,-0.164,-0.1652,-0.1596,-0.157,-0.1541,-0.1638,-0.1623,-0.1429,-0.1424,-0.1432,-0.1428,-0.1426,-0.1423,-0.1421,0,-0.0962,-0.0984,-0.1068,-0.1091,-0.1131,-0.1188,-0.1222,-0.1314,-0.1353,-0.1473,-0.1491,-0.1557,-0.1595,-0.1534,-0.1567,-0.154,-0.1517,-0.1501,-0.1453,-0.1429,-0.1411,-0.1411,-0.141,-0.1417,-0.1416,-0.1415,-0.1414,0,-0.0918,-0.0955,-0.0993,-0.1035,-0.1076,-0.1115,-0.1176,-0.1193,-0.1303,-0.1393,-0.1426,-0.1439,-0.1466,-0.1464,-0.1461,-0.1438,-0.1506,-0.147,-0.1475,-0.143,-0.1411,-0.1395,-0.1398,-0.1404,-0.1406,-0.1407,-0.1407,0,-0.0881,-0.0887,-0.0933,-0.096,-0.1014,-0.1032,-0.1071,-0.1116,-0.1161,-0.13,-0.1305,-0.1379,-0.1455,-0.1412,-0.1406,-0.1378,-0.1344,-0.1291,-0.1305,-0.1316,-0.126,-0.1218,-0.1141,0,0,0,0,0,-0.0833,-0.0824,-0.0849,-0.0878,-0.0935,-0.096,-0.1038,-0.1085,-0.1193,-0.1182,-0.124,-0.1259,-0.1258,-0.1292,-0.1234,-0.134,-0.1345,-0.1267,-0.129,-0.1349,-0.1361,-0.1303,0,0,0,0,0,0,-0.0795,-0.0815,-0.0815,-0.0805,-0.0815,-0.0861,-0.0908,-0.0981,-0.0979,-0.1093,-0.1094,-0.1178,-0.1187,-0.1271,-0.1208,-0.1216,-0.1202,-0.1312,-0.1308,-0.1343,-0.1353,-0.1362,-0.1307,0,0,0,0,0]},{"header":{"parameterUnit":"m.s-1","parameterCategory":2,"la1":30.2991,"la2":30.254,"lo1":-89.0895,"lo2":-89.0444,"dy":0.0017,"dx":0.0017,"nx":28,"ny":28,"refTime":"2024-11-30T09:00:00:Z","depth":"4","parameterNumber":3,"parameterNumberName":"V-component_of_CURRENTS"},"data":[0,0,0,0,0,0,0,0,0,0,0,0,0,0,0,0,0,0,0,0,0,0,0,0,0,0,0,0,0,0,0,0,0,0,0,0,0,0,0,0,0,0,0,0,0,0,0,0,0,0,0,0,0,0,0,0,0,0,0.0051,0.0051,0,0.0086,0.0087,0.0087,0.0114,0.0115,0.0115,0.0115,0.0161,0.0162,0.0163,0,0,0,0,0,0,0,0,0,0,0,0,0,0.0037,0.0037,0.0051,0.0051,0.0052,0.0086,0.0087,0.0087,0.0114,0.0115,0.0115,0.0116,0.0161,0.0162,0.0163,0,0,0,0,0,0,0,0,0,0,0,0,0,0.0054,0.0037,0.0051,0.007,0.0072,0.0086,0.0087,0.0087,0.0114,0.0115,0.0115,0.0116,0.0161,0.0162,0.0163,0.0162,0,0,0.0168,0.0168,0,0,0,0,0,0,0,0,0.0053,0.0054,0.0067,0.0069,0.0071,0.0097,0.0099,0.0113,0.0114,0.0097,0.0116,0.0116,0.0141,0.0144,0.0148,0.0164,0.0166,0.0168,0.0169,0.0169,0.017,0,0,0,0,0,0,0,0.0052,0.0053,0.0064,0.0067,0.007,0.0088,0.009,0.0102,0.0116,0.0099,0.0101,0.0106,0.0142,0.0147,0.015,0.0167,0.0168,0.0169,0.017,0.017,0.0188,0.0188,0,0,0,0,0,0,0.0047,0.0052,0.0063,0.0065,0.0064,0.0088,0.009,0.0088,0.0115,0.012,0.0106,0.0108,0.0144,0.0148,0.0151,0.0151,0.0169,0.017,0.0171,0.0188,0.0188,0.0188,0,0,0,0,0,0,0.0046,0.0047,0.0061,0.0061,0.0064,0.0087,0.0084,0.0088,0.0096,0.0121,0.0126,0.011,0.0145,0.0149,0.0161,0.0153,0.0171,0.0172,0.0189,0.0188,0.0188,0.0151,0,0,0,0,0,0,0.0045,0.0046,0.0041,0.006,0.0064,0.0067,0.0084,0.0089,0.0099,0.0101,0.0126,0.013,0.0146,0.0159,0.0162,0.0156,0.0173,0.0189,0.0189,0.0188,0.0153,0.015,0.0147,0,0,0,0,0,0.0045,0.0033,0.004,0.0042,0.0056,0.0067,0.007,0.0089,0.0098,0.0098,0.0115,0.013,0.0157,0.0159,0.0164,0.0157,0.019,0.0189,0.0188,0.0154,0.015,0.0147,0,0,0,0,0,0,0.0028,0.0035,0.0044,0.0036,0.0051,0.0072,0.0072,0.0087,0.01,0.0103,0.0126,0.0132,0.0138,0.0153,0.0155,0.0161,0.0175,0.0175,0.0148,0.0145,0.0141,0.0144,0.0174,0,0,0,0,0,0.002,0.001,0.0029,0.0023,0.0028,0.005,0.0057,0.0072,0.0087,0.0094,0.0111,0.0128,0.0137,0.0145,0.0156,0.0161,0.0192,0.0159,0.0156,0.0153,0.0158,0.0203,0.0205,0.0185,0.0185,0.0185,0,0,0.0013,0.0015,0.001,0.0018,0.003,0.0031,0.0055,0.0064,0.0066,0.0096,0.0101,0.0117,0.0135,0.0139,0.0143,0.0151,0.0174,0.0152,0.015,0.0156,0.0203,0.0205,0.0207,0.0185,0.0185,0.0185,0,0,-0.0006,-0.0006,-0.0017,-0.001,0.0005,0.0017,0.0018,0.0041,0.0051,0.006,0.0079,0.0093,0.0108,0.0122,0.0129,0.0116,0.0155,0.0117,0.0105,0.0149,0.0151,0.0154,0.019,0.0196,0.0117,0.0117,0.0117,0,-0.0011,-0.0027,-0.0016,-0.0022,-0.0023,0.0007,-0.0,0.0013,0.0037,0.0046,0.0057,0.0088,0.01,0.0111,0.0103,0.0109,0.0142,0.0117,0.0146,0.0149,0.0152,0.0189,0.0196,0.0115,0.0115,0.0115,0.0116,0,-0.0036,-0.0047,-0.0053,-0.0057,-0.0055,-0.0057,-0.0038,-0.003,-0.0013,0.0008,0.0028,0.0053,0.0074,0.0076,0.0084,0.0107,0.0124,0.0136,0.0156,0.0152,0.0191,0.0199,0.0112,0.0113,0.0114,0.0114,0,0,-0.0052,-0.0068,-0.007,-0.0082,-0.0075,-0.0078,-0.0077,-0.0065,-0.0061,-0.0026,-0.0014,0.0007,0.0036,0.0047,0.0067,0.0103,0.0143,0.0126,0.0129,0.0164,0.0242,0.021,0.0216,0.0166,0.0167,0.0168,0.0258,0,-0.0073,-0.0102,-0.0102,-0.0128,-0.0142,-0.0125,-0.013,-0.0113,-0.009,-0.0069,-0.0023,-0.0004,0.0021,0.0031,0.0072,0.0123,0.0165,0.0118,0.024,0.0244,0.0217,0.0224,0.0172,0.0264,0.0266,0.0267,0.0269,0,-0.0097,-0.0118,-0.0149,-0.0173,-0.0176,-0.0185,-0.0189,-0.0186,-0.0145,-0.0125,-0.008,-0.0039,0.0011,0.0035,0.0144,0.0115,0.0176,0.0223,0.0228,0.0219,0.0227,0.0272,0.0284,0.0283,0.0282,0.0281,0.028,0,-0.0123,-0.0151,-0.0182,-0.019,-0.0208,-0.0218,-0.0223,-0.0201,-0.02,-0.0153,-0.0137,-0.0061,-0.0024,0.0068,0.0162,0.0159,0.0288,0.0296,0.033,0.0329,0.0348,0.0345,0.0383,0.0383,0.0383,0.0383,0.0383,0,-0.0148,-0.0174,-0.0199,-0.0217,-0.0256,-0.0253,-0.0273,-0.0263,-0.0241,-0.0237,-0.0165,-0.0135,-0.0011,0.0076,0.0165,0.0269,0.0296,0.0333,0.0352,0.0329,0.0322,0.0354,0.035,0.0386,0.0385,0.0385,0.0384,0,-0.0168,-0.0183,-0.0225,-0.0257,-0.0269,-0.0297,-0.0317,-0.0326,-0.0299,-0.0288,-0.0275,-0.018,-0.0074,0.0049,0.0197,0.0262,0.0367,0.04,0.0363,0.0378,0.038,0.0373,0.0448,0.0448,0.0448,0.0447,0.0447,0,-0.0181,-0.0204,-0.0257,-0.0292,-0.0309,-0.0345,-0.0368,-0.0358,-0.0363,-0.0315,-0.031,-0.0208,-0.0137,0.0058,0.0181,0.0348,0.0368,0.0428,0.0407,0.0377,0.0388,0.0381,0.0374,0.0447,0.0447,0.0447,0.0447,0,-0.0208,-0.0226,-0.0261,-0.0333,-0.0373,-0.0412,-0.0439,-0.0446,-0.0427,-0.0402,-0.0331,-0.0226,-0.0108,0.0044,0.0172,0.0292,0.039,0.0425,0.0427,0.0408,0.0376,0.0386,0.0379,0.0446,0.0446,0.0446,0.0446,0,-0.0225,-0.0258,-0.0309,-0.0372,-0.0428,-0.0469,-0.0475,-0.0471,-0.0465,-0.0406,-0.0381,-0.0244,-0.0155,0.0016,0.0135,0.0244,0.027,0.0309,0.0317,0.032,0.0247,0.0186,0.0217,0,0,0,0,0,-0.024,-0.0282,-0.0348,-0.0415,-0.0473,-0.0506,-0.0523,-0.0517,-0.0492,-0.0451,-0.0416,-0.0306,-0.0122,-0.0031,0.0072,0.0117,0.0278,0.024,0.0325,0.044,0.0441,0.0373,0,0,0,0,0,0,-0.025,-0.031,-0.035,-0.0441,-0.0497,-0.0553,-0.0566,-0.0547,-0.0513,-0.0468,-0.0366,-0.0297,-0.0116,-0.0193,0.0065,0.01,0.0166,0.0332,0.0334,0.0439,0.044,0.0441,0.0372,0,0,0,0,0]}]]